Index of /20260509/WXO-DD/model_caps/3km/12/007
Name Last modified Size Description
Parent Directory -
20260509T12Z_MSC_CAPS_AbsoluteVorticity_IsbL-0250_RLatLon0.03_PT007H.grib2 2026-05-09 18:05 1.1M
20260509T12Z_MSC_CAPS_AbsoluteVorticity_IsbL-0500_RLatLon0.03_PT007H.grib2 2026-05-09 18:05 1.1M
20260509T12Z_MSC_CAPS_AbsoluteVorticity_IsbL-0700_RLatLon0.03_PT007H.grib2 2026-05-09 18:05 1.0M
20260509T12Z_MSC_CAPS_AbsoluteVorticity_IsbL-0850_RLatLon0.03_PT007H.grib2 2026-05-09 18:05 1.2M
20260509T12Z_MSC_CAPS_AbsoluteVorticity_IsbL-1000_RLatLon0.03_PT007H.grib2 2026-05-09 18:05 1.3M
20260509T12Z_MSC_CAPS_AirDensity_AGL-120m_RLatLon0.03_PT007H.grib2 2026-05-09 18:05 1.4M
20260509T12Z_MSC_CAPS_AirDensity_AGL-40m_RLatLon0.03_PT007H.grib2 2026-05-09 18:05 1.5M
20260509T12Z_MSC_CAPS_AirDensity_AGL-80m_RLatLon0.03_PT007H.grib2 2026-05-09 18:05 1.4M
20260509T12Z_MSC_CAPS_AirTemp_AGL-120m_RLatLon0.03_PT007H.grib2 2026-05-09 18:05 1.7M
20260509T12Z_MSC_CAPS_AirTemp_AGL-2m_RLatLon0.03_PT007H.grib2 2026-05-09 18:05 2.1M
20260509T12Z_MSC_CAPS_AirTemp_AGL-40m_RLatLon0.03_PT007H.grib2 2026-05-09 18:05 1.8M
20260509T12Z_MSC_CAPS_AirTemp_AGL-80m_RLatLon0.03_PT007H.grib2 2026-05-09 18:05 1.8M
20260509T12Z_MSC_CAPS_AirTemp_IsbL-0050_RLatLon0.03_PT007H.grib2 2026-05-09 18:05 690K
20260509T12Z_MSC_CAPS_AirTemp_IsbL-0100_RLatLon0.03_PT007H.grib2 2026-05-09 18:05 789K
20260509T12Z_MSC_CAPS_AirTemp_IsbL-0150_RLatLon0.03_PT007H.grib2 2026-05-09 18:05 746K
20260509T12Z_MSC_CAPS_AirTemp_IsbL-0175_RLatLon0.03_PT007H.grib2 2026-05-09 18:05 774K
20260509T12Z_MSC_CAPS_AirTemp_IsbL-0200_RLatLon0.03_PT007H.grib2 2026-05-09 18:05 798K
20260509T12Z_MSC_CAPS_AirTemp_IsbL-0225_RLatLon0.03_PT007H.grib2 2026-05-09 18:05 804K
20260509T12Z_MSC_CAPS_AirTemp_IsbL-0250_RLatLon0.03_PT007H.grib2 2026-05-09 18:05 794K
20260509T12Z_MSC_CAPS_AirTemp_IsbL-0275_RLatLon0.03_PT007H.grib2 2026-05-09 18:05 1.0M
20260509T12Z_MSC_CAPS_AirTemp_IsbL-0300_RLatLon0.03_PT007H.grib2 2026-05-09 18:05 1.0M
20260509T12Z_MSC_CAPS_AirTemp_IsbL-0350_RLatLon0.03_PT007H.grib2 2026-05-09 18:05 756K
20260509T12Z_MSC_CAPS_AirTemp_IsbL-0400_RLatLon0.03_PT007H.grib2 2026-05-09 18:05 760K
20260509T12Z_MSC_CAPS_AirTemp_IsbL-0450_RLatLon0.03_PT007H.grib2 2026-05-09 18:05 775K
20260509T12Z_MSC_CAPS_AirTemp_IsbL-0500_RLatLon0.03_PT007H.grib2 2026-05-09 18:05 786K
20260509T12Z_MSC_CAPS_AirTemp_IsbL-0550_RLatLon0.03_PT007H.grib2 2026-05-09 18:05 803K
20260509T12Z_MSC_CAPS_AirTemp_IsbL-0600_RLatLon0.03_PT007H.grib2 2026-05-09 18:05 822K
20260509T12Z_MSC_CAPS_AirTemp_IsbL-0650_RLatLon0.03_PT007H.grib2 2026-05-09 18:05 847K
20260509T12Z_MSC_CAPS_AirTemp_IsbL-0700_RLatLon0.03_PT007H.grib2 2026-05-09 18:05 878K
20260509T12Z_MSC_CAPS_AirTemp_IsbL-0750_RLatLon0.03_PT007H.grib2 2026-05-09 18:05 909K
20260509T12Z_MSC_CAPS_AirTemp_IsbL-0800_RLatLon0.03_PT007H.grib2 2026-05-09 18:05 937K
20260509T12Z_MSC_CAPS_AirTemp_IsbL-0850_RLatLon0.03_PT007H.grib2 2026-05-09 18:05 1.1M
20260509T12Z_MSC_CAPS_AirTemp_IsbL-0875_RLatLon0.03_PT007H.grib2 2026-05-09 18:05 1.1M
20260509T12Z_MSC_CAPS_AirTemp_IsbL-0900_RLatLon0.03_PT007H.grib2 2026-05-09 18:05 1.1M
20260509T12Z_MSC_CAPS_AirTemp_IsbL-0925_RLatLon0.03_PT007H.grib2 2026-05-09 18:05 1.1M
20260509T12Z_MSC_CAPS_AirTemp_IsbL-0950_RLatLon0.03_PT007H.grib2 2026-05-09 18:05 1.1M
20260509T12Z_MSC_CAPS_AirTemp_IsbL-0970_RLatLon0.03_PT007H.grib2 2026-05-09 18:05 1.1M
20260509T12Z_MSC_CAPS_AirTemp_IsbL-0985_RLatLon0.03_PT007H.grib2 2026-05-09 18:05 1.1M
20260509T12Z_MSC_CAPS_AirTemp_IsbL-1000_RLatLon0.03_PT007H.grib2 2026-05-09 18:05 1.1M
20260509T12Z_MSC_CAPS_AirTemp_IsbL-1015_RLatLon0.03_PT007H.grib2 2026-05-09 18:05 1.1M
20260509T12Z_MSC_CAPS_Albedo_Sfc_RLatLon0.03_PT007H.grib2 2026-05-09 18:05 2.7M
20260509T12Z_MSC_CAPS_CAPE_Sfc_RLatLon0.03_PT007H.grib2 2026-05-09 18:05 277K
20260509T12Z_MSC_CAPS_CloudWater_EAtm_RLatLon0.03_PT007H.grib2 2026-05-09 18:05 1.5M
20260509T12Z_MSC_CAPS_ConvectivePrecip-Accum_Sfc_RLatLon0.03_PT007H.grib2 2026-05-09 18:05 1.7M
20260509T12Z_MSC_CAPS_DewPointDepression_AGL-120m_RLatLon0.03_PT007H.grib2 2026-05-09 18:05 2.0M
20260509T12Z_MSC_CAPS_DewPointDepression_AGL-2m_RLatLon0.03_PT007H.grib2 2026-05-09 18:05 2.1M
20260509T12Z_MSC_CAPS_DewPointDepression_AGL-40m_RLatLon0.03_PT007H.grib2 2026-05-09 18:05 2.1M
20260509T12Z_MSC_CAPS_DewPointDepression_AGL-80m_RLatLon0.03_PT007H.grib2 2026-05-09 18:05 2.0M
20260509T12Z_MSC_CAPS_DewPointDepression_IsbL-0050_RLatLon0.03_PT007H.grib2 2026-05-09 18:05 597
20260509T12Z_MSC_CAPS_DewPointDepression_IsbL-0100_RLatLon0.03_PT007H.grib2 2026-05-09 18:05 61K
20260509T12Z_MSC_CAPS_DewPointDepression_IsbL-0150_RLatLon0.03_PT007H.grib2 2026-05-09 18:05 75K
20260509T12Z_MSC_CAPS_DewPointDepression_IsbL-0175_RLatLon0.03_PT007H.grib2 2026-05-09 18:05 170K
20260509T12Z_MSC_CAPS_DewPointDepression_IsbL-0200_RLatLon0.03_PT007H.grib2 2026-05-09 18:05 364K
20260509T12Z_MSC_CAPS_DewPointDepression_IsbL-0225_RLatLon0.03_PT007H.grib2 2026-05-09 18:05 602K
20260509T12Z_MSC_CAPS_DewPointDepression_IsbL-0250_RLatLon0.03_PT007H.grib2 2026-05-09 18:05 833K
20260509T12Z_MSC_CAPS_DewPointDepression_IsbL-0275_RLatLon0.03_PT007H.grib2 2026-05-09 18:05 1.0M
20260509T12Z_MSC_CAPS_DewPointDepression_IsbL-0300_RLatLon0.03_PT007H.grib2 2026-05-09 18:05 1.0M
20260509T12Z_MSC_CAPS_DewPointDepression_IsbL-0350_RLatLon0.03_PT007H.grib2 2026-05-09 18:05 1.0M
20260509T12Z_MSC_CAPS_DewPointDepression_IsbL-0400_RLatLon0.03_PT007H.grib2 2026-05-09 18:05 1.1M
20260509T12Z_MSC_CAPS_DewPointDepression_IsbL-0450_RLatLon0.03_PT007H.grib2 2026-05-09 18:05 1.1M
20260509T12Z_MSC_CAPS_DewPointDepression_IsbL-0500_RLatLon0.03_PT007H.grib2 2026-05-09 18:05 1.1M
20260509T12Z_MSC_CAPS_DewPointDepression_IsbL-0550_RLatLon0.03_PT007H.grib2 2026-05-09 18:05 1.1M
20260509T12Z_MSC_CAPS_DewPointDepression_IsbL-0600_RLatLon0.03_PT007H.grib2 2026-05-09 18:05 1.2M
20260509T12Z_MSC_CAPS_DewPointDepression_IsbL-0650_RLatLon0.03_PT007H.grib2 2026-05-09 18:05 1.2M
20260509T12Z_MSC_CAPS_DewPointDepression_IsbL-0700_RLatLon0.03_PT007H.grib2 2026-05-09 18:05 1.2M
20260509T12Z_MSC_CAPS_DewPointDepression_IsbL-0750_RLatLon0.03_PT007H.grib2 2026-05-09 18:05 1.3M
20260509T12Z_MSC_CAPS_DewPointDepression_IsbL-0800_RLatLon0.03_PT007H.grib2 2026-05-09 18:05 1.3M
20260509T12Z_MSC_CAPS_DewPointDepression_IsbL-0850_RLatLon0.03_PT007H.grib2 2026-05-09 18:05 1.3M
20260509T12Z_MSC_CAPS_DewPointDepression_IsbL-0875_RLatLon0.03_PT007H.grib2 2026-05-09 18:05 1.3M
20260509T12Z_MSC_CAPS_DewPointDepression_IsbL-0900_RLatLon0.03_PT007H.grib2 2026-05-09 18:05 1.3M
20260509T12Z_MSC_CAPS_DewPointDepression_IsbL-0925_RLatLon0.03_PT007H.grib2 2026-05-09 18:05 1.3M
20260509T12Z_MSC_CAPS_DewPointDepression_IsbL-0950_RLatLon0.03_PT007H.grib2 2026-05-09 18:05 1.3M
20260509T12Z_MSC_CAPS_DewPointDepression_IsbL-0970_RLatLon0.03_PT007H.grib2 2026-05-09 18:05 1.3M
20260509T12Z_MSC_CAPS_DewPointDepression_IsbL-0985_RLatLon0.03_PT007H.grib2 2026-05-09 18:05 1.3M
20260509T12Z_MSC_CAPS_DewPointDepression_IsbL-1000_RLatLon0.03_PT007H.grib2 2026-05-09 18:05 1.3M
20260509T12Z_MSC_CAPS_DewPointDepression_IsbL-1015_RLatLon0.03_PT007H.grib2 2026-05-09 18:05 1.3M
20260509T12Z_MSC_CAPS_DewPoint_AGL-120m_RLatLon0.03_PT007H.grib2 2026-05-09 18:05 3.6M
20260509T12Z_MSC_CAPS_DewPoint_AGL-2m_RLatLon0.03_PT007H.grib2 2026-05-09 18:05 2.2M
20260509T12Z_MSC_CAPS_DewPoint_AGL-40m_RLatLon0.03_PT007H.grib2 2026-05-09 18:05 3.7M
20260509T12Z_MSC_CAPS_DewPoint_AGL-80m_RLatLon0.03_PT007H.grib2 2026-05-09 18:05 3.6M
20260509T12Z_MSC_CAPS_DownwardLongwaveRadiationFlux-Accum_Sfc_RLatLon0.03_PT007H.grib2 2026-05-09 18:05 2.5M
20260509T12Z_MSC_CAPS_DownwardShortwaveRadiationFlux-Accum_NTAtm_RLatLon0.03_PT007H.grib2 2026-05-09 18:05 405K
20260509T12Z_MSC_CAPS_DownwardShortwaveRadiationFlux-Accum_Sfc_RLatLon0.03_PT007H.grib2 2026-05-09 18:05 2.3M
20260509T12Z_MSC_CAPS_FreezingRain-Accum_Sfc_RLatLon0.03_PT007H.grib2 2026-05-09 18:05 269K
20260509T12Z_MSC_CAPS_GeopotentialHeight_IsbL-0050_RLatLon0.03_PT007H.grib2 2026-05-09 18:05 623K
20260509T12Z_MSC_CAPS_GeopotentialHeight_IsbL-0100_RLatLon0.03_PT007H.grib2 2026-05-09 18:05 813K
20260509T12Z_MSC_CAPS_GeopotentialHeight_IsbL-0150_RLatLon0.03_PT007H.grib2 2026-05-09 18:05 600K
20260509T12Z_MSC_CAPS_GeopotentialHeight_IsbL-0175_RLatLon0.03_PT007H.grib2 2026-05-09 18:05 717K
20260509T12Z_MSC_CAPS_GeopotentialHeight_IsbL-0200_RLatLon0.03_PT007H.grib2 2026-05-09 18:05 733K
20260509T12Z_MSC_CAPS_GeopotentialHeight_IsbL-0225_RLatLon0.03_PT007H.grib2 2026-05-09 18:05 750K
20260509T12Z_MSC_CAPS_GeopotentialHeight_IsbL-0250_RLatLon0.03_PT007H.grib2 2026-05-09 18:05 767K
20260509T12Z_MSC_CAPS_GeopotentialHeight_IsbL-0275_RLatLon0.03_PT007H.grib2 2026-05-09 18:05 778K
20260509T12Z_MSC_CAPS_GeopotentialHeight_IsbL-0300_RLatLon0.03_PT007H.grib2 2026-05-09 18:05 786K
20260509T12Z_MSC_CAPS_GeopotentialHeight_IsbL-0350_RLatLon0.03_PT007H.grib2 2026-05-09 18:05 788K
20260509T12Z_MSC_CAPS_GeopotentialHeight_IsbL-0400_RLatLon0.03_PT007H.grib2 2026-05-09 18:05 784K
20260509T12Z_MSC_CAPS_GeopotentialHeight_IsbL-0450_RLatLon0.03_PT007H.grib2 2026-05-09 18:05 775K
20260509T12Z_MSC_CAPS_GeopotentialHeight_IsbL-0500_RLatLon0.03_PT007H.grib2 2026-05-09 18:05 768K
20260509T12Z_MSC_CAPS_GeopotentialHeight_IsbL-0550_RLatLon0.03_PT007H.grib2 2026-05-09 18:05 764K
20260509T12Z_MSC_CAPS_GeopotentialHeight_IsbL-0600_RLatLon0.03_PT007H.grib2 2026-05-09 18:05 752K
20260509T12Z_MSC_CAPS_GeopotentialHeight_IsbL-0650_RLatLon0.03_PT007H.grib2 2026-05-09 18:05 645K
20260509T12Z_MSC_CAPS_GeopotentialHeight_IsbL-0700_RLatLon0.03_PT007H.grib2 2026-05-09 18:05 645K
20260509T12Z_MSC_CAPS_GeopotentialHeight_IsbL-0750_RLatLon0.03_PT007H.grib2 2026-05-09 18:05 642K
20260509T12Z_MSC_CAPS_GeopotentialHeight_IsbL-0800_RLatLon0.03_PT007H.grib2 2026-05-09 18:05 825K
20260509T12Z_MSC_CAPS_GeopotentialHeight_IsbL-0850_RLatLon0.03_PT007H.grib2 2026-05-09 18:05 833K
20260509T12Z_MSC_CAPS_GeopotentialHeight_IsbL-0875_RLatLon0.03_PT007H.grib2 2026-05-09 18:05 823K
20260509T12Z_MSC_CAPS_GeopotentialHeight_IsbL-0900_RLatLon0.03_PT007H.grib2 2026-05-09 18:05 846K
20260509T12Z_MSC_CAPS_GeopotentialHeight_IsbL-0925_RLatLon0.03_PT007H.grib2 2026-05-09 18:05 853K
20260509T12Z_MSC_CAPS_GeopotentialHeight_IsbL-0950_RLatLon0.03_PT007H.grib2 2026-05-09 18:05 862K
20260509T12Z_MSC_CAPS_GeopotentialHeight_IsbL-0970_RLatLon0.03_PT007H.grib2 2026-05-09 18:05 868K
20260509T12Z_MSC_CAPS_GeopotentialHeight_IsbL-0985_RLatLon0.03_PT007H.grib2 2026-05-09 18:05 878K
20260509T12Z_MSC_CAPS_GeopotentialHeight_IsbL-1000_RLatLon0.03_PT007H.grib2 2026-05-09 18:05 887K
20260509T12Z_MSC_CAPS_GeopotentialHeight_IsbL-1015_RLatLon0.03_PT007H.grib2 2026-05-09 18:05 896K
20260509T12Z_MSC_CAPS_GeopotentialHeight_Sfc_RLatLon0.03_PT007H.grib2 2026-05-09 18:05 1.0M
20260509T12Z_MSC_CAPS_IcePellets-Accum_Sfc_RLatLon0.03_PT007H.grib2 2026-05-09 18:05 14K
20260509T12Z_MSC_CAPS_LatentHeatNetFlux_Sfc_RLatLon0.03_PT007H.grib2 2026-05-09 18:05 2.0M
20260509T12Z_MSC_CAPS_LiftedIndex-MU-VT_IsbL-0500_RLatLon0.03_PT007H.grib2 2026-05-09 18:05 3.4M
20260509T12Z_MSC_CAPS_MixedLayerThickness_Sfc_RLatLon0.03_PT007H.nc 2026-05-09 18:11 16M
20260509T12Z_MSC_CAPS_NetLongwaveRadiationFlux-Accum_Sfc_RLatLon0.03_PT007H.grib2 2026-05-09 18:05 2.8M
20260509T12Z_MSC_CAPS_NetShortwaveRadiationFlux-Accum_Sfc_RLatLon0.03_PT007H.grib2 2026-05-09 18:05 2.3M
20260509T12Z_MSC_CAPS_PlanetaryBoundaryLayerHeight_Sfc_RLatLon0.03_PT007H.grib2 2026-05-09 18:05 3.0M
20260509T12Z_MSC_CAPS_Precip-Accum_Sfc_RLatLon0.03_PT007H.grib2 2026-05-09 18:05 3.1M
20260509T12Z_MSC_CAPS_PrecipRate_Sfc_RLatLon0.03_PT007H.grib2 2026-05-09 18:05 381K
20260509T12Z_MSC_CAPS_PrecipType-Instant_Sfc_RLatLon0.03_PT007H.grib2 2026-05-09 18:05 1.6M
20260509T12Z_MSC_CAPS_Pressure_MSL_RLatLon0.03_PT007H.grib2 2026-05-09 18:05 769K
20260509T12Z_MSC_CAPS_Pressure_Sfc_RLatLon0.03_PT007H.grib2 2026-05-09 18:05 1.3M
20260509T12Z_MSC_CAPS_RadiativeTemp_Sfc_RLatLon0.03_PT007H.grib2 2026-05-09 18:05 2.0M
20260509T12Z_MSC_CAPS_Rain-Accum_Sfc_RLatLon0.03_PT007H.grib2 2026-05-09 18:05 1.7M
20260509T12Z_MSC_CAPS_RelativeHumidity_AGL-120m_RLatLon0.03_PT007H.grib2 2026-05-09 18:05 2.8M
20260509T12Z_MSC_CAPS_RelativeHumidity_AGL-2m_RLatLon0.03_PT007H.grib2 2026-05-09 18:05 2.9M
20260509T12Z_MSC_CAPS_RelativeHumidity_AGL-40m_RLatLon0.03_PT007H.grib2 2026-05-09 18:05 2.8M
20260509T12Z_MSC_CAPS_RelativeHumidity_AGL-80m_RLatLon0.03_PT007H.grib2 2026-05-09 18:05 2.8M
20260509T12Z_MSC_CAPS_RelativeHumidity_IsbL-0050_RLatLon0.03_PT007H.grib2 2026-05-09 18:05 940K
20260509T12Z_MSC_CAPS_RelativeHumidity_IsbL-0100_RLatLon0.03_PT007H.grib2 2026-05-09 18:05 1.0M
20260509T12Z_MSC_CAPS_RelativeHumidity_IsbL-0150_RLatLon0.03_PT007H.grib2 2026-05-09 18:05 456K
20260509T12Z_MSC_CAPS_RelativeHumidity_IsbL-0175_RLatLon0.03_PT007H.grib2 2026-05-09 18:05 444K
20260509T12Z_MSC_CAPS_RelativeHumidity_IsbL-0200_RLatLon0.03_PT007H.grib2 2026-05-09 18:05 627K
20260509T12Z_MSC_CAPS_RelativeHumidity_IsbL-0225_RLatLon0.03_PT007H.grib2 2026-05-09 18:05 873K
20260509T12Z_MSC_CAPS_RelativeHumidity_IsbL-0250_RLatLon0.03_PT007H.grib2 2026-05-09 18:05 1.1M
20260509T12Z_MSC_CAPS_RelativeHumidity_IsbL-0275_RLatLon0.03_PT007H.grib2 2026-05-09 18:05 1.4M
20260509T12Z_MSC_CAPS_RelativeHumidity_IsbL-0300_RLatLon0.03_PT007H.grib2 2026-05-09 18:05 1.7M
20260509T12Z_MSC_CAPS_RelativeHumidity_IsbL-0350_RLatLon0.03_PT007H.grib2 2026-05-09 18:05 1.9M
20260509T12Z_MSC_CAPS_RelativeHumidity_IsbL-0400_RLatLon0.03_PT007H.grib2 2026-05-09 18:05 2.0M
20260509T12Z_MSC_CAPS_RelativeHumidity_IsbL-0450_RLatLon0.03_PT007H.grib2 2026-05-09 18:05 1.9M
20260509T12Z_MSC_CAPS_RelativeHumidity_IsbL-0500_RLatLon0.03_PT007H.grib2 2026-05-09 18:05 2.0M
20260509T12Z_MSC_CAPS_RelativeHumidity_IsbL-0550_RLatLon0.03_PT007H.grib2 2026-05-09 18:05 2.0M
20260509T12Z_MSC_CAPS_RelativeHumidity_IsbL-0600_RLatLon0.03_PT007H.grib2 2026-05-09 18:05 2.1M
20260509T12Z_MSC_CAPS_RelativeHumidity_IsbL-0650_RLatLon0.03_PT007H.grib2 2026-05-09 18:05 2.1M
20260509T12Z_MSC_CAPS_RelativeHumidity_IsbL-0700_RLatLon0.03_PT007H.grib2 2026-05-09 18:05 2.1M
20260509T12Z_MSC_CAPS_RelativeHumidity_IsbL-0750_RLatLon0.03_PT007H.grib2 2026-05-09 18:05 2.2M
20260509T12Z_MSC_CAPS_RelativeHumidity_IsbL-0800_RLatLon0.03_PT007H.grib2 2026-05-09 18:05 2.3M
20260509T12Z_MSC_CAPS_RelativeHumidity_IsbL-0850_RLatLon0.03_PT007H.grib2 2026-05-09 18:05 2.5M
20260509T12Z_MSC_CAPS_RelativeHumidity_IsbL-0875_RLatLon0.03_PT007H.grib2 2026-05-09 18:05 2.5M
20260509T12Z_MSC_CAPS_RelativeHumidity_IsbL-0900_RLatLon0.03_PT007H.grib2 2026-05-09 18:05 2.6M
20260509T12Z_MSC_CAPS_RelativeHumidity_IsbL-0925_RLatLon0.03_PT007H.grib2 2026-05-09 18:05 2.6M
20260509T12Z_MSC_CAPS_RelativeHumidity_IsbL-0950_RLatLon0.03_PT007H.grib2 2026-05-09 18:05 2.7M
20260509T12Z_MSC_CAPS_RelativeHumidity_IsbL-0970_RLatLon0.03_PT007H.grib2 2026-05-09 18:05 2.7M
20260509T12Z_MSC_CAPS_RelativeHumidity_IsbL-0985_RLatLon0.03_PT007H.grib2 2026-05-09 18:05 2.8M
20260509T12Z_MSC_CAPS_RelativeHumidity_IsbL-1000_RLatLon0.03_PT007H.grib2 2026-05-09 18:05 2.8M
20260509T12Z_MSC_CAPS_RelativeHumidity_IsbL-1015_RLatLon0.03_PT007H.grib2 2026-05-09 18:05 2.8M
20260509T12Z_MSC_CAPS_Runoff-Accum_Sfc_RLatLon0.03_PT007H.grib2 2026-05-09 18:05 219K
20260509T12Z_MSC_CAPS_SeaIceAreaFraction_Sfc_RLatLon0.03_PT007H.nc 2026-05-09 18:11 15M
20260509T12Z_MSC_CAPS_SeaIceCompressiveStrength_Sfc_RLatLon0.03_PT007H.nc 2026-05-09 18:11 15M
20260509T12Z_MSC_CAPS_SeaIceDivergence_Sfc_RLatLon0.03_PT007H.nc 2026-05-09 18:11 15M
20260509T12Z_MSC_CAPS_SeaIceInternalPressure_Sfc_RLatLon0.03_PT007H.nc 2026-05-09 18:11 15M
20260509T12Z_MSC_CAPS_SeaIceShear_Sfc_RLatLon0.03_PT007H.nc 2026-05-09 18:11 15M
20260509T12Z_MSC_CAPS_SeaIceSnowTemp_Sfc_RLatLon0.03_PT007H.nc 2026-05-09 18:11 14M
20260509T12Z_MSC_CAPS_SeaIceSnowVolume_Sfc_RLatLon0.03_PT007H.nc 2026-05-09 18:11 15M
20260509T12Z_MSC_CAPS_SeaIceVelocityX_Sfc_RLatLon0.03_PT007H.nc 2026-05-09 18:11 15M
20260509T12Z_MSC_CAPS_SeaIceVelocityY_Sfc_RLatLon0.03_PT007H.nc 2026-05-09 18:11 15M
20260509T12Z_MSC_CAPS_SeaIceVolume_Sfc_RLatLon0.03_PT007H.nc 2026-05-09 18:11 15M
20260509T12Z_MSC_CAPS_SeaSurfaceHeight_Sfc_RLatLon0.03_PT007H.nc 2026-05-09 18:11 16M
20260509T12Z_MSC_CAPS_SeaWaterSalinity_DBS-0.5m_RLatLon0.03_PT007H.nc 2026-05-09 18:11 16M
20260509T12Z_MSC_CAPS_SeaWaterSalinity_DBS-all_RLatLon0.03_PT007H.nc 2026-05-09 18:11 107M
20260509T12Z_MSC_CAPS_SeaWaterTemp_DBS-0.5m_RLatLon0.03_PT007H.nc 2026-05-09 18:11 15M
20260509T12Z_MSC_CAPS_SeaWaterTemp_DBS-all_RLatLon0.03_PT007H.nc 2026-05-09 18:11 88M
20260509T12Z_MSC_CAPS_SeaWaterVelocityX_DBS-0.5m_RLatLon0.03_PT007H.nc 2026-05-09 18:11 17M
20260509T12Z_MSC_CAPS_SeaWaterVelocityX_DBS-all_RLatLon0.03_PT007H.nc 2026-05-09 18:11 213M
20260509T12Z_MSC_CAPS_SeaWaterVelocityY_DBS-0.5m_RLatLon0.03_PT007H.nc 2026-05-09 18:11 17M
20260509T12Z_MSC_CAPS_SeaWaterVelocityY_DBS-all_RLatLon0.03_PT007H.nc 2026-05-09 18:11 217M
20260509T12Z_MSC_CAPS_SensibleHeatNetFlux_Sfc_RLatLon0.03_PT007H.grib2 2026-05-09 18:05 2.2M
20260509T12Z_MSC_CAPS_ShowalterIndex_IsbL-0500_RLatLon0.03_PT007H.grib2 2026-05-09 18:05 4.3M
20260509T12Z_MSC_CAPS_Snow-Accum_Sfc_RLatLon0.03_PT007H.grib2 2026-05-09 18:05 2.0M
20260509T12Z_MSC_CAPS_SnowDensity_Sfc_RLatLon0.03_PT007H.grib2 2026-05-09 18:05 1.2M
20260509T12Z_MSC_CAPS_SnowDepthWaterEquivalent_Sfc_RLatLon0.03_PT007H.grib2 2026-05-09 18:05 635K
20260509T12Z_MSC_CAPS_SnowDepth_Sfc_RLatLon0.03_PT007H.grib2 2026-05-09 18:05 1.1M
20260509T12Z_MSC_CAPS_SoilTemp_DBS-0to10cm_RLatLon0.03_PT007H.grib2 2026-05-09 18:05 1.4M
20260509T12Z_MSC_CAPS_SoilTemp_Sfc_RLatLon0.03_PT007H.grib2 2026-05-09 18:05 1.9M
20260509T12Z_MSC_CAPS_SoilVolumetricIceContent_Sfc_RLatLon0.03_PT007H.grib2 2026-05-09 18:05 1.2M
20260509T12Z_MSC_CAPS_SoilVolumetricWaterContent_DBS-0to10cm_RLatLon0.03_PT007H.grib2 2026-05-09 18:05 1.3M
20260509T12Z_MSC_CAPS_SoilVolumetricWaterContent_DBS-0to1cm_RLatLon0.03_PT007H.grib2 2026-05-09 18:05 1.7M
20260509T12Z_MSC_CAPS_SpecificHumidity_AGL-120m_RLatLon0.03_PT007H.grib2 2026-05-09 18:05 1.8M
20260509T12Z_MSC_CAPS_SpecificHumidity_AGL-2m_RLatLon0.03_PT007H.grib2 2026-05-09 18:05 2.1M
20260509T12Z_MSC_CAPS_SpecificHumidity_AGL-40m_RLatLon0.03_PT007H.grib2 2026-05-09 18:05 1.9M
20260509T12Z_MSC_CAPS_SpecificHumidity_AGL-80m_RLatLon0.03_PT007H.grib2 2026-05-09 18:05 1.8M
20260509T12Z_MSC_CAPS_SpecificHumidity_IsbL-0050_RLatLon0.03_PT007H.grib2 2026-05-09 18:05 867K
20260509T12Z_MSC_CAPS_SpecificHumidity_IsbL-0100_RLatLon0.03_PT007H.grib2 2026-05-09 18:05 1.1M
20260509T12Z_MSC_CAPS_SpecificHumidity_IsbL-0150_RLatLon0.03_PT007H.grib2 2026-05-09 18:05 732K
20260509T12Z_MSC_CAPS_SpecificHumidity_IsbL-0175_RLatLon0.03_PT007H.grib2 2026-05-09 18:05 955K
20260509T12Z_MSC_CAPS_SpecificHumidity_IsbL-0200_RLatLon0.03_PT007H.grib2 2026-05-09 18:05 864K
20260509T12Z_MSC_CAPS_SpecificHumidity_IsbL-0225_RLatLon0.03_PT007H.grib2 2026-05-09 18:05 850K
20260509T12Z_MSC_CAPS_SpecificHumidity_IsbL-0250_RLatLon0.03_PT007H.grib2 2026-05-09 18:05 1.1M
20260509T12Z_MSC_CAPS_SpecificHumidity_IsbL-0275_RLatLon0.03_PT007H.grib2 2026-05-09 18:05 1.1M
20260509T12Z_MSC_CAPS_SpecificHumidity_IsbL-0300_RLatLon0.03_PT007H.grib2 2026-05-09 18:05 1.1M
20260509T12Z_MSC_CAPS_SpecificHumidity_IsbL-0350_RLatLon0.03_PT007H.grib2 2026-05-09 18:05 1.0M
20260509T12Z_MSC_CAPS_SpecificHumidity_IsbL-0400_RLatLon0.03_PT007H.grib2 2026-05-09 18:05 971K
20260509T12Z_MSC_CAPS_SpecificHumidity_IsbL-0450_RLatLon0.03_PT007H.grib2 2026-05-09 18:05 1.1M
20260509T12Z_MSC_CAPS_SpecificHumidity_IsbL-0500_RLatLon0.03_PT007H.grib2 2026-05-09 18:05 1.0M
20260509T12Z_MSC_CAPS_SpecificHumidity_IsbL-0550_RLatLon0.03_PT007H.grib2 2026-05-09 18:05 1.2M
20260509T12Z_MSC_CAPS_SpecificHumidity_IsbL-0600_RLatLon0.03_PT007H.grib2 2026-05-09 18:05 1.4M
20260509T12Z_MSC_CAPS_SpecificHumidity_IsbL-0650_RLatLon0.03_PT007H.grib2 2026-05-09 18:05 1.4M
20260509T12Z_MSC_CAPS_SpecificHumidity_IsbL-0700_RLatLon0.03_PT007H.grib2 2026-05-09 18:05 1.2M
20260509T12Z_MSC_CAPS_SpecificHumidity_IsbL-0750_RLatLon0.03_PT007H.grib2 2026-05-09 18:05 1.4M
20260509T12Z_MSC_CAPS_SpecificHumidity_IsbL-0800_RLatLon0.03_PT007H.grib2 2026-05-09 18:05 1.5M
20260509T12Z_MSC_CAPS_SpecificHumidity_IsbL-0850_RLatLon0.03_PT007H.grib2 2026-05-09 18:05 1.7M
20260509T12Z_MSC_CAPS_SpecificHumidity_IsbL-0875_RLatLon0.03_PT007H.grib2 2026-05-09 18:05 1.8M
20260509T12Z_MSC_CAPS_SpecificHumidity_IsbL-0900_RLatLon0.03_PT007H.grib2 2026-05-09 18:05 1.8M
20260509T12Z_MSC_CAPS_SpecificHumidity_IsbL-0925_RLatLon0.03_PT007H.grib2 2026-05-09 18:05 1.9M
20260509T12Z_MSC_CAPS_SpecificHumidity_IsbL-0950_RLatLon0.03_PT007H.grib2 2026-05-09 18:05 2.0M
20260509T12Z_MSC_CAPS_SpecificHumidity_IsbL-0970_RLatLon0.03_PT007H.grib2 2026-05-09 18:05 2.0M
20260509T12Z_MSC_CAPS_SpecificHumidity_IsbL-0985_RLatLon0.03_PT007H.grib2 2026-05-09 18:05 2.0M
20260509T12Z_MSC_CAPS_SpecificHumidity_IsbL-1000_RLatLon0.03_PT007H.grib2 2026-05-09 18:05 2.1M
20260509T12Z_MSC_CAPS_SpecificHumidity_IsbL-1015_RLatLon0.03_PT007H.grib2 2026-05-09 18:05 2.1M
20260509T12Z_MSC_CAPS_SpecificHumidity_Sfc_RLatLon0.03_PT007H.grib2 2026-05-09 18:05 2.1M
20260509T12Z_MSC_CAPS_StormRelativeHelicity_Sfc_RLatLon0.03_PT007H.grib2 2026-05-09 18:05 3.2M
20260509T12Z_MSC_CAPS_Thickness_IsbL-1000to0500_RLatLon0.03_PT007H.grib2 2026-05-09 18:05 427K
20260509T12Z_MSC_CAPS_TotalCloudCover_Sfc_RLatLon0.03_PT007H.grib2 2026-05-09 18:05 3.4M
20260509T12Z_MSC_CAPS_TurboclineDepth_Sfc_RLatLon0.03_PT007H.nc 2026-05-09 18:11 16M
20260509T12Z_MSC_CAPS_UpwardLongwaveRadiationFlux_NTAtm_RLatLon0.03_PT007H.grib2 2026-05-09 18:05 2.8M
20260509T12Z_MSC_CAPS_UpwardShortwaveRadiationFlux_NTAtm_RLatLon0.03_PT007H.grib2 2026-05-09 18:05 2.6M
20260509T12Z_MSC_CAPS_VerticalVelocity_IsbL-0250_RLatLon0.03_PT007H.grib2 2026-05-09 18:05 1.1M
20260509T12Z_MSC_CAPS_VerticalVelocity_IsbL-0500_RLatLon0.03_PT007H.grib2 2026-05-09 18:05 1.1M
20260509T12Z_MSC_CAPS_VerticalVelocity_IsbL-0700_RLatLon0.03_PT007H.grib2 2026-05-09 18:05 1.2M
20260509T12Z_MSC_CAPS_VerticalVelocity_IsbL-0850_RLatLon0.03_PT007H.grib2 2026-05-09 18:05 1.5M
20260509T12Z_MSC_CAPS_VerticalVelocity_IsbL-1000_RLatLon0.03_PT007H.grib2 2026-05-09 18:05 1.3M
20260509T12Z_MSC_CAPS_WindDir_AGL-10m_RLatLon0.03_PT007H.grib2 2026-05-09 18:05 2.4M
20260509T12Z_MSC_CAPS_WindDir_AGL-120m_RLatLon0.03_PT007H.grib2 2026-05-09 18:05 1.2M
20260509T12Z_MSC_CAPS_WindDir_AGL-40m_RLatLon0.03_PT007H.grib2 2026-05-09 18:05 1.3M
20260509T12Z_MSC_CAPS_WindDir_AGL-80m_RLatLon0.03_PT007H.grib2 2026-05-09 18:05 1.3M
20260509T12Z_MSC_CAPS_WindDir_IsbL-0050_RLatLon0.03_PT007H.grib2 2026-05-09 18:05 1.0M
20260509T12Z_MSC_CAPS_WindDir_IsbL-0100_RLatLon0.03_PT007H.grib2 2026-05-09 18:05 1.0M
20260509T12Z_MSC_CAPS_WindDir_IsbL-0150_RLatLon0.03_PT007H.grib2 2026-05-09 18:05 1.1M
20260509T12Z_MSC_CAPS_WindDir_IsbL-0175_RLatLon0.03_PT007H.grib2 2026-05-09 18:05 1.1M
20260509T12Z_MSC_CAPS_WindDir_IsbL-0200_RLatLon0.03_PT007H.grib2 2026-05-09 18:05 1.2M
20260509T12Z_MSC_CAPS_WindDir_IsbL-0225_RLatLon0.03_PT007H.grib2 2026-05-09 18:05 1.1M
20260509T12Z_MSC_CAPS_WindDir_IsbL-0250_RLatLon0.03_PT007H.grib2 2026-05-09 18:05 1.1M
20260509T12Z_MSC_CAPS_WindDir_IsbL-0275_RLatLon0.03_PT007H.grib2 2026-05-09 18:05 1.1M
20260509T12Z_MSC_CAPS_WindDir_IsbL-0300_RLatLon0.03_PT007H.grib2 2026-05-09 18:05 1.1M
20260509T12Z_MSC_CAPS_WindDir_IsbL-0350_RLatLon0.03_PT007H.grib2 2026-05-09 18:05 1.1M
20260509T12Z_MSC_CAPS_WindDir_IsbL-0400_RLatLon0.03_PT007H.grib2 2026-05-09 18:05 1.1M
20260509T12Z_MSC_CAPS_WindDir_IsbL-0450_RLatLon0.03_PT007H.grib2 2026-05-09 18:05 1.2M
20260509T12Z_MSC_CAPS_WindDir_IsbL-0500_RLatLon0.03_PT007H.grib2 2026-05-09 18:05 1.2M
20260509T12Z_MSC_CAPS_WindDir_IsbL-0550_RLatLon0.03_PT007H.grib2 2026-05-09 18:05 1.2M
20260509T12Z_MSC_CAPS_WindDir_IsbL-0600_RLatLon0.03_PT007H.grib2 2026-05-09 18:05 1.2M
20260509T12Z_MSC_CAPS_WindDir_IsbL-0650_RLatLon0.03_PT007H.grib2 2026-05-09 18:05 1.3M
20260509T12Z_MSC_CAPS_WindDir_IsbL-0700_RLatLon0.03_PT007H.grib2 2026-05-09 18:05 1.4M
20260509T12Z_MSC_CAPS_WindDir_IsbL-0750_RLatLon0.03_PT007H.grib2 2026-05-09 18:05 1.5M
20260509T12Z_MSC_CAPS_WindDir_IsbL-0800_RLatLon0.03_PT007H.grib2 2026-05-09 18:05 1.6M
20260509T12Z_MSC_CAPS_WindDir_IsbL-0850_RLatLon0.03_PT007H.grib2 2026-05-09 18:05 1.7M
20260509T12Z_MSC_CAPS_WindDir_IsbL-0875_RLatLon0.03_PT007H.grib2 2026-05-09 18:05 1.8M
20260509T12Z_MSC_CAPS_WindDir_IsbL-0900_RLatLon0.03_PT007H.grib2 2026-05-09 18:05 1.9M
20260509T12Z_MSC_CAPS_WindDir_IsbL-0925_RLatLon0.03_PT007H.grib2 2026-05-09 18:05 2.0M
20260509T12Z_MSC_CAPS_WindDir_IsbL-0950_RLatLon0.03_PT007H.grib2 2026-05-09 18:05 2.0M
20260509T12Z_MSC_CAPS_WindDir_IsbL-0970_RLatLon0.03_PT007H.grib2 2026-05-09 18:05 2.1M
20260509T12Z_MSC_CAPS_WindDir_IsbL-0985_RLatLon0.03_PT007H.grib2 2026-05-09 18:05 2.2M
20260509T12Z_MSC_CAPS_WindDir_IsbL-1000_RLatLon0.03_PT007H.grib2 2026-05-09 18:05 2.2M
20260509T12Z_MSC_CAPS_WindDir_IsbL-1015_RLatLon0.03_PT007H.grib2 2026-05-09 18:05 2.3M
20260509T12Z_MSC_CAPS_WindGust-Max_AGL-10m_RLatLon0.03_PT007H.grib2 2026-05-09 18:05 2.6M
20260509T12Z_MSC_CAPS_WindGust-Min_AGL-10m_RLatLon0.03_PT007H.grib2 2026-05-09 18:05 2.4M
20260509T12Z_MSC_CAPS_WindGust_AGL-10m_RLatLon0.03_PT007H.grib2 2026-05-09 18:05 2.5M
20260509T12Z_MSC_CAPS_WindSpeed_AGL-10m_RLatLon0.03_PT007H.grib2 2026-05-09 18:05 2.6M
20260509T12Z_MSC_CAPS_WindSpeed_AGL-120m_RLatLon0.03_PT007H.grib2 2026-05-09 18:05 1.1M
20260509T12Z_MSC_CAPS_WindSpeed_AGL-40m_RLatLon0.03_PT007H.grib2 2026-05-09 18:05 1.6M
20260509T12Z_MSC_CAPS_WindSpeed_AGL-80m_RLatLon0.03_PT007H.grib2 2026-05-09 18:05 1.5M
20260509T12Z_MSC_CAPS_WindSpeed_IsbL-0050_RLatLon0.03_PT007H.grib2 2026-05-09 18:05 1.1M
20260509T12Z_MSC_CAPS_WindSpeed_IsbL-0100_RLatLon0.03_PT007H.grib2 2026-05-09 18:05 1.1M
20260509T12Z_MSC_CAPS_WindSpeed_IsbL-0150_RLatLon0.03_PT007H.grib2 2026-05-09 18:05 1.1M
20260509T12Z_MSC_CAPS_WindSpeed_IsbL-0175_RLatLon0.03_PT007H.grib2 2026-05-09 18:05 1.1M
20260509T12Z_MSC_CAPS_WindSpeed_IsbL-0200_RLatLon0.03_PT007H.grib2 2026-05-09 18:05 942K
20260509T12Z_MSC_CAPS_WindSpeed_IsbL-0225_RLatLon0.03_PT007H.grib2 2026-05-09 18:05 1.0M
20260509T12Z_MSC_CAPS_WindSpeed_IsbL-0250_RLatLon0.03_PT007H.grib2 2026-05-09 18:05 1.0M
20260509T12Z_MSC_CAPS_WindSpeed_IsbL-0275_RLatLon0.03_PT007H.grib2 2026-05-09 18:05 1.0M
20260509T12Z_MSC_CAPS_WindSpeed_IsbL-0300_RLatLon0.03_PT007H.grib2 2026-05-09 18:05 1.0M
20260509T12Z_MSC_CAPS_WindSpeed_IsbL-0350_RLatLon0.03_PT007H.grib2 2026-05-09 18:05 1.0M
20260509T12Z_MSC_CAPS_WindSpeed_IsbL-0400_RLatLon0.03_PT007H.grib2 2026-05-09 18:05 1.0M
20260509T12Z_MSC_CAPS_WindSpeed_IsbL-0450_RLatLon0.03_PT007H.grib2 2026-05-09 18:05 1.3M
20260509T12Z_MSC_CAPS_WindSpeed_IsbL-0500_RLatLon0.03_PT007H.grib2 2026-05-09 18:05 1.3M
20260509T12Z_MSC_CAPS_WindSpeed_IsbL-0550_RLatLon0.03_PT007H.grib2 2026-05-09 18:05 1.4M
20260509T12Z_MSC_CAPS_WindSpeed_IsbL-0600_RLatLon0.03_PT007H.grib2 2026-05-09 18:05 1.4M
20260509T12Z_MSC_CAPS_WindSpeed_IsbL-0650_RLatLon0.03_PT007H.grib2 2026-05-09 18:05 1.5M
20260509T12Z_MSC_CAPS_WindSpeed_IsbL-0700_RLatLon0.03_PT007H.grib2 2026-05-09 18:05 1.5M
20260509T12Z_MSC_CAPS_WindSpeed_IsbL-0750_RLatLon0.03_PT007H.grib2 2026-05-09 18:05 1.6M
20260509T12Z_MSC_CAPS_WindSpeed_IsbL-0800_RLatLon0.03_PT007H.grib2 2026-05-09 18:05 1.7M
20260509T12Z_MSC_CAPS_WindSpeed_IsbL-0850_RLatLon0.03_PT007H.grib2 2026-05-09 18:05 1.7M
20260509T12Z_MSC_CAPS_WindSpeed_IsbL-0875_RLatLon0.03_PT007H.grib2 2026-05-09 18:05 1.8M
20260509T12Z_MSC_CAPS_WindSpeed_IsbL-0900_RLatLon0.03_PT007H.grib2 2026-05-09 18:05 1.8M
20260509T12Z_MSC_CAPS_WindSpeed_IsbL-0925_RLatLon0.03_PT007H.grib2 2026-05-09 18:05 1.8M
20260509T12Z_MSC_CAPS_WindSpeed_IsbL-0950_RLatLon0.03_PT007H.grib2 2026-05-09 18:05 1.9M
20260509T12Z_MSC_CAPS_WindSpeed_IsbL-0970_RLatLon0.03_PT007H.grib2 2026-05-09 18:05 2.0M
20260509T12Z_MSC_CAPS_WindSpeed_IsbL-0985_RLatLon0.03_PT007H.grib2 2026-05-09 18:05 2.0M
20260509T12Z_MSC_CAPS_WindSpeed_IsbL-1000_RLatLon0.03_PT007H.grib2 2026-05-09 18:05 2.1M
20260509T12Z_MSC_CAPS_WindSpeed_IsbL-1015_RLatLon0.03_PT007H.grib2 2026-05-09 18:05 2.5M
20260509T12Z_MSC_CAPS_WindU_AGL-10m_RLatLon0.03_PT007H.grib2 2026-05-09 18:05 2.0M
20260509T12Z_MSC_CAPS_WindU_AGL-120m_RLatLon0.03_PT007H.grib2 2026-05-09 18:05 1.2M
20260509T12Z_MSC_CAPS_WindU_AGL-40m_RLatLon0.03_PT007H.grib2 2026-05-09 18:05 1.2M
20260509T12Z_MSC_CAPS_WindU_AGL-80m_RLatLon0.03_PT007H.grib2 2026-05-09 18:05 1.2M
20260509T12Z_MSC_CAPS_WindU_IsbL-0050_RLatLon0.03_PT007H.grib2 2026-05-09 18:05 764K
20260509T12Z_MSC_CAPS_WindU_IsbL-0100_RLatLon0.03_PT007H.grib2 2026-05-09 18:05 791K
20260509T12Z_MSC_CAPS_WindU_IsbL-0150_RLatLon0.03_PT007H.grib2 2026-05-09 18:05 707K
20260509T12Z_MSC_CAPS_WindU_IsbL-0175_RLatLon0.03_PT007H.grib2 2026-05-09 18:05 852K
20260509T12Z_MSC_CAPS_WindU_IsbL-0200_RLatLon0.03_PT007H.grib2 2026-05-09 18:05 880K
20260509T12Z_MSC_CAPS_WindU_IsbL-0225_RLatLon0.03_PT007H.grib2 2026-05-09 18:05 695K
20260509T12Z_MSC_CAPS_WindU_IsbL-0250_RLatLon0.03_PT007H.grib2 2026-05-09 18:05 716K
20260509T12Z_MSC_CAPS_WindU_IsbL-0275_RLatLon0.03_PT007H.grib2 2026-05-09 18:05 725K
20260509T12Z_MSC_CAPS_WindU_IsbL-0300_RLatLon0.03_PT007H.grib2 2026-05-09 18:05 731K
20260509T12Z_MSC_CAPS_WindU_IsbL-0350_RLatLon0.03_PT007H.grib2 2026-05-09 18:05 738K
20260509T12Z_MSC_CAPS_WindU_IsbL-0400_RLatLon0.03_PT007H.grib2 2026-05-09 18:05 958K
20260509T12Z_MSC_CAPS_WindU_IsbL-0450_RLatLon0.03_PT007H.grib2 2026-05-09 18:05 1.0M
20260509T12Z_MSC_CAPS_WindU_IsbL-0500_RLatLon0.03_PT007H.grib2 2026-05-09 18:05 1.0M
20260509T12Z_MSC_CAPS_WindU_IsbL-0550_RLatLon0.03_PT007H.grib2 2026-05-09 18:05 913K
20260509T12Z_MSC_CAPS_WindU_IsbL-0600_RLatLon0.03_PT007H.grib2 2026-05-09 18:05 946K
20260509T12Z_MSC_CAPS_WindU_IsbL-0650_RLatLon0.03_PT007H.grib2 2026-05-09 18:05 1.0M
20260509T12Z_MSC_CAPS_WindU_IsbL-0700_RLatLon0.03_PT007H.grib2 2026-05-09 18:05 1.0M
20260509T12Z_MSC_CAPS_WindU_IsbL-0750_RLatLon0.03_PT007H.grib2 2026-05-09 18:05 1.1M
20260509T12Z_MSC_CAPS_WindU_IsbL-0800_RLatLon0.03_PT007H.grib2 2026-05-09 18:05 1.1M
20260509T12Z_MSC_CAPS_WindU_IsbL-0850_RLatLon0.03_PT007H.grib2 2026-05-09 18:05 1.2M
20260509T12Z_MSC_CAPS_WindU_IsbL-0875_RLatLon0.03_PT007H.grib2 2026-05-09 18:05 1.2M
20260509T12Z_MSC_CAPS_WindU_IsbL-0900_RLatLon0.03_PT007H.grib2 2026-05-09 18:05 1.3M
20260509T12Z_MSC_CAPS_WindU_IsbL-0925_RLatLon0.03_PT007H.grib2 2026-05-09 18:05 1.3M
20260509T12Z_MSC_CAPS_WindU_IsbL-0950_RLatLon0.03_PT007H.grib2 2026-05-09 18:05 1.4M
20260509T12Z_MSC_CAPS_WindU_IsbL-0970_RLatLon0.03_PT007H.grib2 2026-05-09 18:05 1.8M
20260509T12Z_MSC_CAPS_WindU_IsbL-0985_RLatLon0.03_PT007H.grib2 2026-05-09 18:05 1.8M
20260509T12Z_MSC_CAPS_WindU_IsbL-1000_RLatLon0.03_PT007H.grib2 2026-05-09 18:05 2.0M
20260509T12Z_MSC_CAPS_WindU_IsbL-1015_RLatLon0.03_PT007H.grib2 2026-05-09 18:05 2.0M
20260509T12Z_MSC_CAPS_WindV_AGL-10m_RLatLon0.03_PT007H.grib2 2026-05-09 18:05 2.0M
20260509T12Z_MSC_CAPS_WindV_AGL-120m_RLatLon0.03_PT007H.grib2 2026-05-09 18:05 1.2M
20260509T12Z_MSC_CAPS_WindV_AGL-40m_RLatLon0.03_PT007H.grib2 2026-05-09 18:05 1.2M
20260509T12Z_MSC_CAPS_WindV_AGL-80m_RLatLon0.03_PT007H.grib2 2026-05-09 18:05 1.2M
20260509T12Z_MSC_CAPS_WindV_IsbL-0050_RLatLon0.03_PT007H.grib2 2026-05-09 18:05 769K
20260509T12Z_MSC_CAPS_WindV_IsbL-0100_RLatLon0.03_PT007H.grib2 2026-05-09 18:05 791K
20260509T12Z_MSC_CAPS_WindV_IsbL-0150_RLatLon0.03_PT007H.grib2 2026-05-09 18:05 1.0M
20260509T12Z_MSC_CAPS_WindV_IsbL-0175_RLatLon0.03_PT007H.grib2 2026-05-09 18:05 729K
20260509T12Z_MSC_CAPS_WindV_IsbL-0200_RLatLon0.03_PT007H.grib2 2026-05-09 18:05 878K
20260509T12Z_MSC_CAPS_WindV_IsbL-0225_RLatLon0.03_PT007H.grib2 2026-05-09 18:05 903K
20260509T12Z_MSC_CAPS_WindV_IsbL-0250_RLatLon0.03_PT007H.grib2 2026-05-09 18:05 927K
20260509T12Z_MSC_CAPS_WindV_IsbL-0275_RLatLon0.03_PT007H.grib2 2026-05-09 18:05 934K
20260509T12Z_MSC_CAPS_WindV_IsbL-0300_RLatLon0.03_PT007H.grib2 2026-05-09 18:05 941K
20260509T12Z_MSC_CAPS_WindV_IsbL-0350_RLatLon0.03_PT007H.grib2 2026-05-09 18:05 949K
20260509T12Z_MSC_CAPS_WindV_IsbL-0400_RLatLon0.03_PT007H.grib2 2026-05-09 18:05 954K
20260509T12Z_MSC_CAPS_WindV_IsbL-0450_RLatLon0.03_PT007H.grib2 2026-05-09 18:05 970K
20260509T12Z_MSC_CAPS_WindV_IsbL-0500_RLatLon0.03_PT007H.grib2 2026-05-09 18:05 874K
20260509T12Z_MSC_CAPS_WindV_IsbL-0550_RLatLon0.03_PT007H.grib2 2026-05-09 18:05 907K
20260509T12Z_MSC_CAPS_WindV_IsbL-0600_RLatLon0.03_PT007H.grib2 2026-05-09 18:05 938K
20260509T12Z_MSC_CAPS_WindV_IsbL-0650_RLatLon0.03_PT007H.grib2 2026-05-09 18:05 1.0M
20260509T12Z_MSC_CAPS_WindV_IsbL-0700_RLatLon0.03_PT007H.grib2 2026-05-09 18:05 1.0M
20260509T12Z_MSC_CAPS_WindV_IsbL-0750_RLatLon0.03_PT007H.grib2 2026-05-09 18:05 1.1M
20260509T12Z_MSC_CAPS_WindV_IsbL-0800_RLatLon0.03_PT007H.grib2 2026-05-09 18:05 1.4M
20260509T12Z_MSC_CAPS_WindV_IsbL-0850_RLatLon0.03_PT007H.grib2 2026-05-09 18:05 1.5M
20260509T12Z_MSC_CAPS_WindV_IsbL-0875_RLatLon0.03_PT007H.grib2 2026-05-09 18:05 1.6M
20260509T12Z_MSC_CAPS_WindV_IsbL-0900_RLatLon0.03_PT007H.grib2 2026-05-09 18:05 1.6M
20260509T12Z_MSC_CAPS_WindV_IsbL-0925_RLatLon0.03_PT007H.grib2 2026-05-09 18:05 1.7M
20260509T12Z_MSC_CAPS_WindV_IsbL-0950_RLatLon0.03_PT007H.grib2 2026-05-09 18:05 1.7M
20260509T12Z_MSC_CAPS_WindV_IsbL-0970_RLatLon0.03_PT007H.grib2 2026-05-09 18:05 1.8M
20260509T12Z_MSC_CAPS_WindV_IsbL-0985_RLatLon0.03_PT007H.grib2 2026-05-09 18:05 1.8M
20260509T12Z_MSC_CAPS_WindV_IsbL-1000_RLatLon0.03_PT007H.grib2 2026-05-09 18:05 2.0M
20260509T12Z_MSC_CAPS_WindV_IsbL-1015_RLatLon0.03_PT007H.grib2 2026-05-09 18:05 2.0M